GW2644 Weather Reports


time (UTC)temp
F
wind
direction
speed
knots
gust
knots
rain 1hr
in
rain 24hr
in
rain mn
in
humidity
%
barometer
mb
20260508013414 73 262 2.6 4.3 0.00 0.00 0.00 64 1017.7
20260508012912 74 306 0.9 1.7 0.00 0.00 0.00 65 1017.6
20260508012409 74 270 0.0 2.6 0.00 0.00 0.00 64 1017.7
20260508011907 74 250 2.6 2.6 0.00 0.00 0.00 65 1017.6
20260508011404 75 228 1.7 1.7 0.00 0.00 0.00 64 1017.7
20260508010901 75 261 0.0 2.6 0.00 0.00 0.00 63 1017.5
20260508010358 75 246 0.9 2.6 0.00 0.00 0.00 62 1017.6
20260508005855 77 217 1.7 3.5 0.00 0.00 0.00 62 1017.5
20260508005352 77 201 1.7 2.6 0.00 0.00 0.00 60 1017.5
20260508004848 76 212 1.7 2.6 0.00 0.00 0.00 61 1017.5
20260508004345 76 201 1.7 2.6 0.00 0.00 0.00 60 1017.2
20260508003841 78 208 2.6 2.6 0.00 0.00 0.00 57 1017.4
20260508003338 77 218 1.7 2.6 0.00 0.00 0.00 58 1017.4
20260508002836 77 249 0.9 2.6 0.00 0.00 0.00 58 1017.5
20260508002332 77 225 2.6 4.3 0.00 0.00 0.00 58 1017.5
20260508001828 76 283 0.0 4.3 0.00 0.00 0.00 60 1017.3
20260508001324 77 216 0.0 3.5 0.00 0.00 0.00 58 1017.2
20260508000821 76 12 0.0 1.7 0.00 0.00 0.00 58 1017.3
20260508000319 77 188 1.7 4.3 0.00 0.00 0.00 58 1017.4
20260507235814 77 257 1.7 4.3 0.00 0.00 0.00 58 1017.4
20260507235312 77 114 0.0 1.7 0.00 0.00 0.00 58 1017.4
20260507234809 77 216 1.7 2.6 0.00 0.00 0.00 57 1017.2
20260507234305 75 114 0.0 2.6 0.00 0.00 0.00 59 1017.5
20260507233801 75 159 1.7 2.6 0.00 0.00 0.00 58 1017.5
20260507233259 77 229 2.6 4.3 0.00 0.00 0.00 57 1017.4
20260507232757 76 74 0.0 2.6 0.00 0.00 0.00 57 1017.6
20260507232253 76 204 0.0 3.5 0.00 0.00 0.00 58 1017.6
20260507231750 76 214 1.7 3.5 0.00 0.00 0.00 58 1017.4
20260507231247 76 105 0.9 2.6 0.00 0.00 0.00 57 1017.6
20260507230743 76 219 0.0 3.5 0.00 0.00 0.00 58 1017.4
20260507230241 75 281 0.0 1.7 0.00 0.00 0.00 57 1017.7
20260507225740 76 212 0.0 2.6 0.00 0.00 0.00 57 1017.7
20260507225237 75 247 4.3 4.3 0.00 0.00 0.00 58 1017.7
20260507224733 75 145 0.0 1.7 0.00 0.00 0.00 61 1017.8
20260507224230 76 254 0.9 3.5 0.00 0.00 0.00 59 1017.7
20260507223726 75 243 0.9 5.2 0.00 0.00 0.00 60 1017.7
20260507223223 75 216 1.7 2.6 0.00 0.00 0.00 58 1017.9
20260507222719 75 75 0.0 2.6 0.00 0.00 0.00 61 1017.8
20260507222216 74 270 0.0 3.5 0.00 0.00 0.00 62 1017.9
20260507221713 73 221 0.0 3.5 0.00 0.00 0.00 61 1017.8
20260507221209 75 205 0.0 3.5 0.00 0.00 0.00 61 1017.9
20260507220706 75 194 0.9 4.3 0.00 0.00 0.00 61 1018.0
20260507220204 74 208 2.6 3.5 0.00 0.00 0.00 61 1018.5
20260507215700 75 218 2.6 5.2 0.00 0.00 0.00 60 1018.3
20260507215157 75 209 0.9 3.5 0.00 0.00 0.00 59 1018.2
20260507214654 75 270 0.0 2.6 0.00 0.00 0.00 61 1018.2
20260507214151 75 209 0.0 3.5 0.00 0.00 0.00 61 1018.4
20260507213647 74 221 4.3 4.3 0.00 0.00 0.00 61 1018.5
20260507213144 75 218 0.0 4.3 0.00 0.00 0.00 60 1018.4
20260507212640 75 249 0.9 3.5 0.00 0.00 0.00 60 1018.5
20260507212137 74 204 1.7 4.3 0.00 0.00 0.00 61 1018.4
20260507211634 74 203 2.6 4.3 0.00 0.00 0.00 60 1018.7
20260507211129 74 243 1.7 4.3 0.00 0.00 0.00 60 1018.6
20260507210628 75 251 0.0 2.6 0.00 0.00 0.00 60 1018.7
20260507210124 73 216 0.0 6.1 0.00 0.00 0.00 63 1018.8
20260507205621 74 216 1.7 5.2 0.00 0.00 0.00 61 1018.8
20260507205117 74 286 1.7 6.1 0.00 0.00 0.00 62 1018.8
20260507204613 74 233 1.7 4.3 0.00 0.00 0.00 61 1018.8
20260507204111 74 256 0.0 5.2 0.00 0.00 0.00 62 1018.8
20260507203609 74 255 0.9 2.6 0.00 0.00 0.00 62 1018.9
20260507203106 72 208 0.0 4.3 0.00 0.00 0.00 64 1018.9
20260507202601 73 208 2.6 4.3 0.00 0.00 0.00 63 1019.1
20260507202058 75 214 2.6 3.5 0.00 0.00 0.00 61 1018.9
20260507201553 72 247 0.0 3.5 0.00 0.00 0.00 64 1019.1
20260507201050 73 180 1.7 4.3 0.00 0.00 0.00 64 1019.1
20260507200545 73 195 0.9 6.1 0.00 0.00 0.00 63 1019.2
20260507200042 73 287 2.6 4.3 0.00 0.00 0.00 64 1019.3
20260507195539 74 249 0.9 3.5 0.00 0.00 0.00 63 1019.5
20260507195037 73 264 0.0 3.5 0.00 0.00 0.00 63 1019.4
20260507194533 74 206 0.0 3.5 0.00 0.00 0.00 64 1019.5
20260507194029 72 204 1.7 6.1 0.00 0.00 0.00 64 1019.2
20260507193526 72 209 0.0 4.3 0.00 0.00 0.00 64 1019.4
20260507193023 73 265 0.0 5.2 0.00 0.00 0.00 64 1019.5
20260507192519 73 240 0.9 3.5 0.00 0.00 0.00 64 1019.5
20260507192016 73 254 0.0 2.6 0.00 0.00 0.00 64 1019.6
20260507191511 72 189 1.7 3.5 0.00 0.00 0.00 64 1019.7
20260507191009 72 213 2.6 2.6 0.00 0.00 0.00 63 1019.8
20260507190506 70 172 0.0 3.5 0.00 0.00 0.00 62 1019.8
20260507190006 71 261 0.0 6.1 0.00 0.00 0.00 65 1019.9
20260507185502 70 270 0.0 3.5 0.00 0.00 0.00 67 1019.8
20260507184959 73 206 1.7 7.0 0.00 0.00 0.00 65 1019.8
20260507184457 72 240 0.0 2.6 0.00 0.00 0.00 65 1020.1
20260507183955 70 239 1.7 1.7 0.00 0.00 0.00 66 1019.9
20260507183450 70 241 2.6 4.3 0.00 0.00 0.00 66 1019.9
20260507182948 71 275 0.0 5.2 0.00 0.00 0.00 66 1020.2
20260507182444 71 123 1.7 2.6 0.00 0.00 0.00 64 1020.1
20260507181940 71 124 0.0 3.5 0.00 0.00 0.00 66 1020.0
20260507181436 70 278 3.5 3.5 0.00 0.00 0.00 66 1020.2
20260507180933 70 221 0.0 3.5 0.00 0.00 0.00 67 1019.9
20260507180430 71 82 0.0 3.5 0.00 0.00 0.00 66 1020.2
20260507175926 71 135 0.0 3.5 0.00 0.00 0.00 64 1020.2
20260507175423 70 109 0.9 2.6 0.00 0.00 0.00 66 1020.1
20260507174921 68 209 1.7 2.6 0.00 0.00 0.00 68 1020.2
20260507174418 68 235 0.0 2.6 0.00 0.00 0.00 67 1020.4
20260507173915 70 231 0.0 4.3 0.00 0.00 0.00 66 1020.4
20260507173412 68 0 1.7 1.7 0.00 0.00 0.00 67 1020.3
20260507172908 67 241 0.0 2.6 0.00 0.00 0.00 68 1020.3
20260507172405 69 216 0.0 1.7 0.00 0.00 0.00 68 1020.3
20260507171901 69 201 2.6 3.5 0.00 0.00 0.00 67 1020.4
20260507171358 69 216 0.0 2.6 0.00 0.00 0.00 66 1020.4
20260507170855 69 255 0.0 3.5 0.00 0.00 0.00 68 1020.2
20260507170351 66 270 0.0 0.0 0.00 0.00 0.00 70 1020.3
20260507165848 67 209 0.0 2.6 0.00 0.00 0.00 69 1020.6
20260507165343 66 221 1.7 1.7 0.00 0.00 0.00 70 1020.4
20260507164840 67 228 1.7 2.6 0.00 0.00 0.00 69 1020.2
20260507164337 65 209 0.0 2.6 0.00 0.00 0.00 71 1020.5
20260507163834 65 279 0.0 3.5 0.00 0.00 0.00 70 1020.5
20260507163331 67 114 0.0 0.9 0.00 0.00 0.00 70 1020.5
20260507162828 64 114 0.0 1.7 0.00 0.00 0.00 71 1020.6
20260507162323 65 102 1.7 1.7 0.00 0.00 0.00 71 1020.3
20260507161821 65 249 0.0 0.0 0.00 0.00 0.00 71 1020.7
20260507161317 65 98 0.0 0.9 0.00 0.00 0.00 73 1020.7
20260507160814 64 97 0.9 2.6 0.00 0.00 0.00 75 1020.7
20260507160309 62 255 0.0 1.7 0.00 0.00 0.00 77 1020.8
20260507155806 62 270 0.0 1.7 0.00 0.00 0.00 78 1020.5
20260507155306 65 270 2.6 2.6 0.00 0.00 0.00 78 1020.8
20260507154759 66 261 0.0 1.7 0.00 0.00 0.00 75 1020.8
20260507154256 66 120 0.0 0.9 0.00 0.00 0.00 77 1020.7
20260507153752 65 220 0.0 0.0 0.00 0.00 0.00 81 1020.8
20260507153249 63 229 0.0 1.7 0.00 0.00 0.00 82 1020.7
20260507152746 63 251 0.0 0.0 0.00 0.00 0.00 83 1020.8
20260507152242 62 251 0.0 1.7 0.00 0.00 0.00 84 1020.8
20260507151738 63 255 0.0 0.9 0.00 0.00 0.00 85 1020.8
20260507151234 62 355 0.0 0.9 0.00 0.00 0.00 86 1020.7
20260507150731 62 8 0.0 0.0 0.00 0.00 0.00 87 1020.8
20260507150228 62 254 0.0 0.9 0.00 0.00 0.00 88 1020.9
20260507145724 61 264 0.9 1.7 0.00 0.00 0.00 90 1020.9
20260507145221 60 254 0.0 0.9 0.00 0.00 0.00 90 1020.9
20260507144718 60 200 0.0 0.9 0.00 0.00 0.00 92 1021.0
20260507144216 60 270 0.0 0.9 0.00 0.00 0.00 93 1020.7
20260507143712 59 249 0.0 2.6 0.00 0.00 0.00 94 1020.6
20260507143209 59 187 0.0 0.0 0.00 0.00 0.00 96 1020.6
20260507142705 59 187 0.0 0.0 0.00 0.00 0.00 96 1020.5
20260507142202 58 270 0.0 0.0 0.00 0.00 0.00 97 1020.7
20260507141658 58 270 0.0 0.0 0.00 0.00 0.00 98 1020.4
20260507141155 57 270 0.0 0.0 0.00 0.00 0.00 98 1020.6
20260507140651 57 270 0.0 0.0 0.00 0.00 0.00 98 1020.6
20260507140149 56 270 0.0 0.0 0.00 0.00 0.00 98 1020.6
20260507135646 56 270 0.0 0.0 0.00 0.00 0.00 98 1020.6
20260507135143 56 270 0.0 0.0 0.00 0.00 0.00 98 1020.3
20260507134639 56 270 0.0 0.0 0.00 0.00 0.00 98 1020.2
20260507134136 56 270 0.0 0.0 0.00 0.00 0.00 98 1020.2
20260507133631 55 270 0.0 0.0 0.00 0.00 0.00 98 1020.1
20260507133129 55 270 0.0 0.0 0.00 0.00 0.00 98 1020.3
20260507132626 55 270 0.0 0.0 0.00 0.00 0.00 98 1020.2
20260507132122 55 270 0.0 0.0 0.00 0.00 0.00 97 1020.3
20260507131619 55 270 0.0 0.0 0.00 0.00 0.00 97 1020.1
20260507131117 55 270 0.0 0.0 0.00 0.00 0.00 97 1020.0
20260507130613 55 270 0.0 0.0 0.00 0.00 0.00 97 1019.8
20260507130111 54 270 0.0 0.0 0.00 0.00 0.00 97 1019.7
20260507125610 55 270 0.0 0.0 0.00 0.00 0.00 97 1019.8
20260507125107 55 270 0.0 0.0 0.00 0.00 0.00 97 1019.9
20260507124603 55 270 0.0 0.0 0.00 0.00 0.00 97 1020.0
20260507124101 55 270 0.0 0.0 0.00 0.00 0.00 97 1020.0
20260507123559 55 270 0.0 0.0 0.00 0.00 0.00 97 1019.8
20260507123055 54 270 0.0 0.0 0.00 0.00 0.00 97 1020.0
20260507122551 55 270 0.0 0.0 0.00 0.00 0.00 97 1019.8
20260507122047 55 270 0.0 0.0 0.00 0.00 0.00 97 1019.9
20260507121543 55 270 0.0 0.0 0.00 0.00 0.00 97 1020.0
20260507121039 55 270 0.0 0.0 0.00 0.00 0.00 97 1019.8
20260507120535 56 270 0.0 0.0 0.00 0.00 0.00 97 1019.9
20260507120032 55 270 0.0 0.0 0.00 0.00 0.00 96 1020.1
20260507115528 55 270 0.0 0.0 0.00 0.00 0.00 96 1019.8
20260507115024 55 270 0.0 0.0 0.00 0.00 0.00 96 1020.0
20260507114520 55 270 0.0 0.0 0.00 0.00 0.00 96 1019.9
20260507114018 55 270 0.0 0.0 0.00 0.00 0.00 96 1020.2
20260507113515 55 270 0.0 0.0 0.00 0.00 0.00 96 1019.7
20260507113012 55 270 0.0 0.0 0.00 0.00 0.00 96 1020.0
20260507112510 56 270 0.0 0.0 0.00 0.00 0.00 96 1020.0
20260507112006 56 270 0.0 0.0 0.00 0.00 0.00 96 1020.0
20260507111504 55 270 0.0 0.0 0.00 0.00 0.00 96 1020.1
20260507110959 55 270 0.0 0.0 0.00 0.00 0.00 95 1020.2
20260507110456 56 270 0.0 0.0 0.00 0.00 0.00 95 1020.3
20260507105952 56 270 0.0 0.0 0.00 0.00 0.00 95 1020.2
20260507105449 56 270 0.0 0.0 0.00 0.00 0.00 95 1020.2
20260507104946 55 270 0.0 0.0 0.00 0.00 0.00 95 1020.0
20260507104443 56 270 0.0 0.0 0.00 0.00 0.00 95 1020.3
20260507103938 56 270 0.0 0.0 0.00 0.00 0.00 95 1020.2
20260507103436 57 270 0.0 0.0 0.00 0.00 0.00 95 1020.2
20260507102932 56 270 0.0 0.0 0.00 0.00 0.00 94 1020.3
20260507102429 56 270 0.0 0.0 0.00 0.00 0.00 94 1020.2
20260507101925 56 270 0.0 0.0 0.00 0.00 0.00 94 1020.4
20260507101420 57 270 0.0 0.0 0.00 0.00 0.00 94 1020.2
20260507100917 57 270 0.0 0.0 0.00 0.00 0.00 94 1020.1
20260507100415 57 270 0.0 0.0 0.00 0.00 0.00 94 1020.4
20260507095913 57 270 0.0 0.0 0.00 0.00 0.00 93 1020.2
20260507095409 57 270 0.0 0.0 0.00 0.00 0.00 93 1020.5
20260507094907 57 270 0.0 0.0 0.00 0.00 0.00 93 1020.5
20260507094403 57 270 0.0 0.0 0.00 0.00 0.00 92 1020.7
20260507093900 57 270 0.0 0.0 0.00 0.00 0.00 92 1020.6
20260507093358 57 270 0.0 0.0 0.00 0.00 0.00 92 1020.6
20260507092856 58 270 0.0 0.0 0.00 0.00 0.00 92 1020.6
20260507092352 58 270 0.0 0.0 0.00 0.00 0.00 92 1021.0
20260507091849 58 270 0.0 0.0 0.00 0.00 0.00 91 1020.8
20260507091345 58 270 0.0 0.0 0.00 0.00 0.00 91 1020.7
20260507090841 58 270 0.0 0.0 0.00 0.00 0.00 91 1020.9
20260507090337 59 262 0.0 0.0 0.00 0.00 0.00 91 1020.9
20260507085834 59 262 0.0 0.0 0.00 0.00 0.00 90 1020.9
20260507085331 59 262 0.0 0.0 0.00 0.00 0.00 90 1020.9
20260507084829 59 262 0.0 0.0 0.00 0.00 0.00 90 1021.0
20260507084325 60 262 0.0 0.0 0.00 0.00 0.00 90 1021.0
20260507083822 60 262 0.0 0.9 0.00 0.00 0.00 90 1020.9
20260507083319 60 353 0.0 0.0 0.00 0.00 0.00 90 1021.3
20260507082815 60 353 0.0 0.0 0.00 0.00 0.00 89 1021.1
20260507082310 60 270 0.0 0.0 0.00 0.00 0.00 89 1021.2
20260507081808 60 345 0.0 0.9 0.00 0.00 0.00 89 1021.2
20260507081303 60 249 0.9 2.6 0.00 0.00 0.00 89 1021.2
20260507080800 60 286 0.0 1.7 0.00 0.00 0.00 89 1021.4
20260507080257 60 287 0.0 1.7 0.00 0.00 0.00 89 1021.4
20260507075752 60 270 0.0 2.6 0.00 0.00 0.00 89 1021.4
20260507075248 60 249 0.0 0.0 0.00 0.00 0.00 89 1021.4
20260507074745 60 0 0.0 2.6 0.00 0.00 0.00 89 1021.3
20260507074243 60 258 0.0 1.7 0.00 0.00 0.00 89 1021.5
20260507073739 60 246 0.0 0.0 0.00 0.00 0.00 88 1021.4
20260507073236 60 279 0.0 0.0 0.00 0.00 0.00 88 1021.3
20260507072734 60 270 0.0 0.0 0.00 0.00 0.00 88 1021.5
20260507072231 60 246 0.0 0.0 0.00 0.00 0.00 88 1021.2
20260507071729 60 270 0.0 0.0 0.00 0.00 0.00 88 1021.6
20260507071225 60 270 0.0 0.0 0.00 0.00 0.00 88 1021.5
20260507070722 60 255 0.0 0.0 0.00 0.00 0.00 88 1021.4
20260507070219 60 255 0.0 0.0 0.00 0.00 0.00 87 1021.5
20260507065715 60 255 0.0 0.0 0.00 0.00 0.00 87 1021.6
20260507065212 61 255 0.0 0.0 0.00 0.00 0.00 87 1021.4
20260507064709 61 255 0.0 0.0 0.00 0.00 0.00 87 1021.4
20260507064209 61 261 0.0 0.0 0.00 0.00 0.00 87 1021.8
20260507063705 61 270 0.0 0.0 0.00 0.00 0.00 87 1021.6
20260507063201 61 270 0.0 0.9 0.00 0.00 0.00 87 1021.7
20260507062659 61 246 0.0 0.0 0.00 0.00 0.00 87 1021.4
20260507062156 61 289 0.0 0.9 0.00 0.00 0.00 87 1021.6
20260507061654 61 337 0.0 0.0 0.00 0.00 0.00 86 1021.6
20260507061152 62 254 0.0 0.9 0.00 0.00 0.00 86 1021.5
20260507060649 61 270 0.0 0.0 0.00 0.00 0.00 86 1021.6
20260507060146 62 240 0.0 0.9 0.00 0.00 0.00 86 1021.5
20260507055642 62 270 0.0 0.9 0.00 0.00 0.00 85 1021.5
20260507055138 62 278 0.9 0.9 0.00 0.00 0.00 85 1021.4
20260507054634 62 261 0.0 1.7 0.00 0.00 0.00 85 1021.5
20260507054131 62 291 0.9 1.7 0.00 0.00 0.00 84 1021.5
20260507053629 62 246 0.0 0.9 0.00 0.00 0.00 84 1021.6
20260507053126 62 278 0.9 2.6 0.00 0.00 0.00 83 1021.5
20260507052625 62 288 1.7 2.6 0.00 0.00 0.00 83 1021.4
20260507052121 62 303 1.7 1.7 0.00 0.00 0.00 82 1021.6
20260507051619 62 254 0.0 2.6 0.00 0.00 0.00 81 1021.5
20260507051115 62 278 0.0 0.9 0.00 0.00 0.00 81 1021.4
20260507050612 62 290 1.7 2.6 0.00 0.00 0.00 81 1021.4
20260507050109 62 262 0.9 1.7 0.00 0.00 0.00 81 1021.4
20260507045605 63 286 0.0 1.7 0.00 0.00 0.00 81 1021.4
20260507045102 62 270 0.0 1.7 0.00 0.00 0.00 81 1021.4
20260507044559 62 264 0.0 2.6 0.00 0.00 0.00 81 1021.6
20260507044056 63 337 0.0 0.9 0.00 0.00 0.00 81 1021.5
20260507043551 63 293 1.7 2.6 0.00 0.00 0.00 80 1021.3
20260507043049 63 285 0.9 2.6 0.00 0.00 0.00 80 1021.3
20260507042545 63 246 0.0 2.6 0.00 0.00 0.00 79 1021.3
20260507042041 63 0 1.7 2.6 0.00 0.00 0.00 79 1021.3
20260507041538 63 334 2.6 2.6 0.00 0.00 0.00 78 1021.4
20260507041035 64 346 0.0 2.6 0.00 0.00 0.00 78 1021.2
20260507040531 64 254 2.6 5.2 0.00 0.00 0.00 77 1021.3
20260507040027 64 282 4.3 4.3 0.00 0.00 0.00 76 1021.2
20260507035523 64 270 0.0 2.6 0.00 0.00 0.00 76 1021.2
20260507035020 64 291 0.9 2.6 0.00 0.00 0.00 75 1020.9
20260507034517 64 290 1.7 2.6 0.00 0.00 0.00 75 1021.0
20260507034015 64 337 0.9 3.5 0.00 0.00 0.00 74 1020.8
20260507033513 64 233 1.7 5.2 0.00 0.00 0.00 73 1020.7
20260507033010 65 217 0.0 4.3 0.00 0.00 0.00 73 1020.7
20260507032506 65 233 0.0 4.3 0.00 0.00 0.00 72 1021.0
20260507032003 65 346 0.0 4.3 0.00 0.00 0.00 71 1020.8
20260507031459 65 283 0.9 3.5 0.00 0.00 0.00 71 1020.5
20260507030956 65 270 0.0 3.5 0.00 0.00 0.00 71 1020.8
20260507030453 65 243 0.0 3.5 0.00 0.00 0.00 71 1020.7
20260507025950 65 270 0.0 2.6 0.00 0.00 0.00 71 1020.5
20260507025447 65 283 1.7 1.7 0.00 0.00 0.00 72 1020.6
20260507024945 66 243 2.6 3.5 0.00 0.00 0.00 72 1020.8
20260507024442 66 255 2.6 6.1 0.00 0.00 0.00 71 1020.5
20260507023938 66 244 4.3 7.0 0.00 0.00 0.00 70 1020.5
20260507023435 66 304 1.7 4.3 0.00 0.00 0.00 69 1020.4
20260507022932 67 270 0.0 3.5 0.00 0.00 0.00 68 1020.3
20260507022429 67 270 0.9 3.5 0.00 0.00 0.00 68 1020.1
20260507021925 67 342 1.7 4.3 0.00 0.00 0.00 68 1020.1
20260507021420 68 250 2.6 4.3 0.00 0.00 0.00 67 1020.1
20260507020918 68 7 0.0 3.5 0.00 0.00 0.00 65 1020.2
20260507020414 68 244 3.5 6.1 0.00 0.00 0.00 65 1020.1
20260507015912 69 249 0.0 4.3 0.00 0.00 0.00 64 1020.1
20260507015410 69 262 1.7 5.2 0.00 0.00 0.00 63 1020.0
20260507014907 69 270 1.7 4.3 0.00 0.00 0.00 64 1019.7
20260507014403 69 325 0.9 5.2 0.00 0.00 0.00 64 1019.8
20260507013859 69 266 0.0 6.1 0.00 0.00 0.00 64 1019.8